LEGELERS

Guest
Details From LEGE - Girona
To LERS - Reus
Flight Number -
Tags generated
Created
Modified
Stats Distance 85 nm / 158 km
Max Altitude 0 ft / 0 m
Waypoints 3
Social Downloads 3
Likes 0
Share VATSIM

Download

Looking for another format? Having issues loading an existing format? Contact us
Advertisement - Login to hide

Notes

Basic altitude profile: - Ascent Rate: 2500ft/min - Ascent Speed: 250kts - Cruise Altitude: 35000ft - Cruise Speed: 420kts - Descent Rate: 1500ft/min - Descent Speed: 250kts Options: - Use NATs: no - Use PACOTS: no - Use low airways: yes - Use high airways: no

Route

LEGE RES LERS

ID Type Via Altitude Latitude Longitude Leg Dist Tot Dist Heading (true) Name
O LEGE APT - 0 ft / 0 m 41.90520˚ 2.76213˚ - 0 nm - Girona
RES VOR - 0 ft / 0 m 41.14969˚ 1.17112˚ 84 nm 84 nm 238° / 237° REUS VOR-DME
O LERS APT - 0 ft / 0 m 41.14462˚ 1.16551˚ 0 nm 85 nm 220° / 220° Reus

Altitude Profile

Advertisement - Login to hide

LEGE

Details ICAO LEGE (GRO)
Name Girona
Region Spain
Timezone Europe/Madrid (UTC+2.0)
Stats Elevation 403 ft / 123 m (AMSL)
Location 41.905202° 2.762133°
Runways 1
Magnetic Variation 1.027° E

METAR

LEGE 240400Z 21003KT 190V270 2000 BR BCFG BKN004 14/14 Q1017

Decode

TAF

TAF LEGE 232300Z 2400/2424 VRB03KT 9999 FEW025 TX27/2413Z TN13/2406Z PROB40 TEMPO 2400/2406 0800 BCFG VV002 BECMG 2408/2410 18013KT BECMG 2418/2420 VRB03KT

Decode

Departure Runways

ID Width Length Bearing (true) Bearing (mag) Surface Threshold Offset Overrun Length
02 148 ft / 45 m 7,880 ft / 2,402 m 15.50° 14.47° Asphalt 0 ft / 0 m 210 ft / 64 m
20 148 ft / 45 m 7,880 ft / 2,402 m 195.50° 194.47° Asphalt 0 ft / 0 m 200 ft / 61 m

LERS

Details ICAO LERS (REU)
Name Reus
Region Spain
Timezone Europe/Madrid (UTC+2.0)
Stats Elevation 0 ft / 0 m (AMSL)
Location 41.144615° 1.165505°
Runways 2
Magnetic Variation 0.640° E

METAR

LERS 240400Z AUTO 00000KT 7000 NCD 15/15 Q1017

Decode

TAF

TAF LERS 240200Z 2403/2503 VRB03KT 9999 FEW020 TX24/2413Z TN16/2406Z PROB30 TEMPO 2403/2406 4000 BR BKN004 BECMG 2409/2411 15007KT BECMG 2418/2420 04005KT

Decode

Destination Runways

ID Width Length Bearing (true) Bearing (mag) Surface Threshold Offset Overrun Length
12 115 ft / 35 m 3,120 ft / 951 m 290.95° 290.31° Grass 0 ft / 0 m 0 ft / 0 m
25 148 ft / 45 m 8,062 ft / 2,457 m 248.91° 248.27° Asphalt 0 ft / 0 m 0 ft / 0 m
30 115 ft / 35 m 3,120 ft / 951 m 110.95° 110.31° Grass 0 ft / 0 m 0 ft / 0 m
7 148 ft / 45 m 8,062 ft / 2,457 m 68.89° 68.25° Asphalt 883 ft / 269 m 0 ft / 0 m

Approach Navaids

Runway Type Ident Frequency Range Bearing (true) Bearing (mag) Slope Elevation
25 Localiser IRS 110.10 MHz 18 nm / 33 km 248.87° 248.23° - 0 ft / 0 m (AMSL)
25 Glidescope IRS 110.10 MHz 10 nm / 19 km 248.90° 248.26° 3.00° 0 ft / 0 m (AMSL)
25 DME IRS 110.10 MHz 18 nm / 33 km - - - 257 ft / 78 m (AMSL)

Popular Alternatives